EDW332 LSZH-LGKR

Flight info

Callsign EDW332
Flight time 1h 49m
Altitude 37000
Route DEGES Z2 XEBIX L607 ELMEM N606 GIRIS DCT MONFA DCT SPL DCT VAKSU DCT RODON DCT LIMJA N732 PITAS
Aircraft A320/M-SDE3FGHIRWY/LB1

Departure

Time 2026-05-05 07:38
Airport Zürich Airport (LSZH)

Arrival

Time 2026-05-05 09:28
Airport Corfu Ioannis Kapodistrias International Airport (LGKR)
Time Latitude Longitude Altitude Speed Heading
2026-05-05 07:21 47.45165 8.55898 1407 ft 0 kts 186°
2026-05-05 07:30 47.45167 8.55898 1407 ft 2 kts 186°
2026-05-05 07:31 47.45192 8.55903 1407 ft 4 kts 190°
2026-05-05 07:31 47.45219 8.55912 1408 ft 4 kts 199°
2026-05-05 07:31 47.45242 8.55929 1413 ft 4 kts 230°
2026-05-05 07:31 47.45249 8.55950 1409 ft 0 kts 276°
2026-05-05 07:33 47.45249 8.55945 1410 ft 2 kts 276°
2026-05-05 07:34 47.45254 8.55875 1410 ft 9 kts 276°
2026-05-05 07:34 47.45264 8.55753 1407 ft 14 kts 276°
2026-05-05 07:34 47.45277 8.55600 1409 ft 15 kts 292°
2026-05-05 07:34 47.45373 8.55511 1406 ft 19 kts 335°
2026-05-05 07:35 47.45479 8.55440 1405 ft 12 kts 346°
2026-05-05 07:35 47.45525 8.55522 1405 ft 13 kts 93°
2026-05-05 07:35 47.45514 8.55670 1409 ft 16 kts 96°
2026-05-05 07:35 47.45501 8.55855 1413 ft 20 kts 94°
2026-05-05 07:36 47.45485 8.56075 1407 ft 23 kts 95°
2026-05-05 07:36 47.45507 8.56265 1413 ft 17 kts 50°
2026-05-05 07:36 47.45581 8.56402 1416 ft 18 kts 53°
2026-05-05 07:36 47.45587 8.56587 1417 ft 19 kts 94°
2026-05-05 07:37 47.45574 8.56775 1423 ft 18 kts 96°
2026-05-05 07:37 47.45562 8.56954 1421 ft 15 kts 92°
2026-05-05 07:37 47.45615 8.57022 1425 ft 9 kts
2026-05-05 07:37 47.45663 8.57011 1425 ft 6 kts 302°
2026-05-05 07:38 47.45668 8.56925 1424 ft 17 kts 275°
2026-05-05 07:38 47.45710 8.56338 1415 ft 95 kts 276°
2026-05-05 07:38 47.45800 8.55048 1410 ft 153 kts 276°
2026-05-05 07:38 47.45900 8.53527 2051 ft 147 kts 276°
2026-05-05 07:39 47.46003 8.52007 2661 ft 149 kts 275°
2026-05-05 07:39 47.46105 8.50472 3211 ft 151 kts 275°
2026-05-05 07:39 47.46214 8.48907 3672 ft 155 kts 272°
2026-05-05 07:39 47.45897 8.47414 4112 ft 156 kts 230°
2026-05-05 07:40 47.45271 8.46083 4567 ft 160 kts 243°
2026-05-05 07:40 47.44745 8.44551 4885 ft 178 kts 242°
2026-05-05 07:40 47.44141 8.42827 5186 ft 199 kts 238°
2026-05-05 07:40 47.43128 8.41427 5670 ft 205 kts 201°
2026-05-05 07:41 47.41728 8.41198 6273 ft 206 kts 166°
2026-05-05 07:41 47.40483 8.42215 6795 ft 213 kts 135°
2026-05-05 07:41 47.39737 8.44220 7037 ft 239 kts 100°
2026-05-05 07:41 47.39698 8.46769 7382 ft 264 kts 89°
2026-05-05 07:42 47.39767 8.49560 7993 ft 277 kts 89°
2026-05-05 07:42 47.39847 8.52433 8814 ft 283 kts 89°
2026-05-05 07:42 47.39929 8.55353 9664 ft 288 kts 90°
2026-05-05 07:42 47.40008 8.58352 10231 ft 302 kts 90°
2026-05-05 07:43 47.40084 8.61576 10503 ft 325 kts 91°
2026-05-05 07:43 47.40160 8.64978 11059 ft 336 kts 91°
2026-05-05 07:43 47.40237 8.68455 11780 ft 342 kts 91°
2026-05-05 07:43 47.40315 8.71986 12517 ft 347 kts 92°
2026-05-05 07:44 47.40391 8.75564 13255 ft 351 kts 92°
2026-05-05 07:44 47.40464 8.79201 13915 ft 357 kts 92°
2026-05-05 07:44 47.40539 8.82893 14574 ft 361 kts 92°
2026-05-05 07:44 47.40616 8.86610 15243 ft 364 kts 92°
2026-05-05 07:45 47.40693 8.90367 15904 ft 367 kts 92°
2026-05-05 07:45 47.40769 8.94147 16572 ft 370 kts 91°
2026-05-05 07:45 47.40843 8.97963 17225 ft 373 kts 91°
2026-05-05 07:45 47.40914 9.01806 17879 ft 376 kts 91°
2026-05-05 07:46 47.40985 9.05692 18476 ft 380 kts 91°
2026-05-05 07:46 47.41055 9.09559 19018 ft 383 kts 91°
2026-05-05 07:46 47.41136 9.13507 19576 ft 387 kts 91°
2026-05-05 07:46 47.41251 9.17508 20109 ft 391 kts 90°
2026-05-05 07:47 47.41386 9.21538 20644 ft 395 kts 90°
2026-05-05 07:47 47.41528 9.25607 21191 ft 399 kts 90°
2026-05-05 07:47 47.41668 9.29709 21740 ft 402 kts 90°
2026-05-05 07:47 47.41803 9.33861 22284 ft 406 kts 90°
2026-05-05 07:48 47.41928 9.38043 22834 ft 410 kts 90°
2026-05-05 07:48 47.42050 9.42265 23353 ft 414 kts 90°
2026-05-05 07:48 47.42172 9.46529 23800 ft 417 kts 90°
2026-05-05 07:48 47.42253 9.49370 24088 ft 419 kts 90°
2026-05-05 07:49 47.42373 9.53685 24510 ft 422 kts 90°
2026-05-05 07:49 47.42488 9.58033 24930 ft 425 kts 91°
2026-05-05 07:49 47.42223 9.62345 25296 ft 422 kts 107°
2026-05-05 07:49 47.41176 9.66368 25696 ft 418 kts 121°
2026-05-05 07:50 47.39802 9.70157 26095 ft 420 kts 122°
2026-05-05 07:50 47.38402 9.73958 26497 ft 422 kts 122°
2026-05-05 07:50 47.36988 9.77759 26920 ft 423 kts 122°
2026-05-05 07:50 47.35564 9.81569 27314 ft 425 kts 122°
2026-05-05 07:51 47.34137 9.85389 27684 ft 427 kts 123°
2026-05-05 07:51 47.32719 9.89189 27958 ft 429 kts 122°
2026-05-05 07:51 47.31282 9.93054 28330 ft 431 kts 122°
2026-05-05 07:51 47.29837 9.96937 28695 ft 433 kts 123°
2026-05-05 07:52 47.28382 10.00837 29015 ft 435 kts 123°
2026-05-05 07:52 47.26918 10.04754 29353 ft 438 kts 123°
2026-05-05 07:52 47.25464 10.08711 29649 ft 441 kts 122°
2026-05-05 07:52 47.24043 10.12727 29968 ft 443 kts 121°
2026-05-05 07:53 47.22645 10.16784 30264 ft 445 kts 121°
2026-05-05 07:53 47.21253 10.20863 30535 ft 447 kts 121°
2026-05-05 07:53 47.19853 10.24952 30794 ft 448 kts 121°
2026-05-05 07:53 47.18438 10.29040 31059 ft 450 kts 121°
2026-05-05 07:54 47.17001 10.33145 31291 ft 452 kts 122°
2026-05-05 07:54 47.15554 10.37246 31596 ft 452 kts 121°
2026-05-05 07:54 47.14099 10.41357 31878 ft 454 kts 121°
2026-05-05 07:54 47.12521 10.45348 32207 ft 448 kts 131°
2026-05-05 07:55 47.10409 10.48628 32469 ft 438 kts 146°
2026-05-05 07:55 47.07971 10.51247 32852 ft 433 kts 148°
2026-05-05 07:55 47.05532 10.53818 33250 ft 431 kts 148°
2026-05-05 07:55 47.03168 10.56433 33617 ft 431 kts 146°
2026-05-05 07:56 47.00845 10.59209 33976 ft 431 kts 144°
2026-05-05 07:56 46.98571 10.62061 34255 ft 431 kts 143°
2026-05-05 07:56 46.96308 10.64955 34527 ft 431 kts 143°
2026-05-05 07:56 46.94045 10.67830 34792 ft 431 kts 143°
2026-05-05 07:57 46.91766 10.70681 35009 ft 431 kts 143°
2026-05-05 07:57 46.89464 10.73513 35184 ft 433 kts 144°
2026-05-05 07:57 46.87151 10.76328 35439 ft 433 kts 144°
2026-05-05 07:57 46.84833 10.79135 35681 ft 432 kts 144°
2026-05-05 07:58 46.82520 10.81935 35939 ft 432 kts 144°
2026-05-05 07:58 46.80205 10.84740 36156 ft 432 kts 144°
2026-05-05 07:58 46.77918 10.87600 36377 ft 434 kts 140°
2026-05-05 07:58 46.75894 10.90903 36559 ft 440 kts 131°
2026-05-05 07:59 46.74064 10.94475 36747 ft 440 kts 131°
2026-05-05 07:59 46.72228 10.98049 36953 ft 440 kts 131°
2026-05-05 07:59 46.68552 11.05170 37037 ft 439 kts 131°
2026-05-05 08:00 46.64867 11.12269 37030 ft 439 kts 131°
2026-05-05 08:00 46.61209 11.19304 37029 ft 438 kts 131°
2026-05-05 08:01 46.57535 11.26379 37005 ft 438 kts 131°
2026-05-05 08:01 46.53858 11.33436 37001 ft 438 kts 131°
2026-05-05 08:02 46.50172 11.40494 36985 ft 439 kts 131°
2026-05-05 08:02 46.46464 11.47562 36984 ft 441 kts 131°
2026-05-05 08:03 46.42739 11.54650 36990 ft 442 kts 131°
2026-05-05 08:03 46.39007 11.61743 37006 ft 443 kts 131°
2026-05-05 08:04 46.35270 11.68830 37001 ft 442 kts 131°
2026-05-05 08:04 46.31532 11.75887 37013 ft 441 kts 131°
2026-05-05 08:05 46.27795 11.82922 37020 ft 441 kts 131°
2026-05-05 08:05 46.24080 11.89915 37020 ft 441 kts 131°
2026-05-05 08:06 46.20341 11.96931 37016 ft 441 kts 131°
2026-05-05 08:06 46.16593 12.03931 36997 ft 441 kts 131°
2026-05-05 08:07 46.12838 12.10938 37003 ft 442 kts 131°
2026-05-05 08:07 46.09074 12.17942 37013 ft 442 kts 131°
2026-05-05 08:08 46.05293 12.24948 37024 ft 442 kts 132°
2026-05-05 08:08 46.01539 12.31901 37032 ft 443 kts 132°
2026-05-05 08:09 45.97749 12.38902 37028 ft 443 kts 131°
2026-05-05 08:09 45.93956 12.45895 37023 ft 443 kts 131°
2026-05-05 08:10 45.90156 12.52863 37023 ft 444 kts 131°
2026-05-05 08:10 45.86349 12.59839 37021 ft 444 kts 132°
2026-05-05 08:11 45.82540 12.66816 37024 ft 444 kts 132°
2026-05-05 08:11 45.78717 12.73790 37025 ft 446 kts 131°
2026-05-05 08:12 45.74907 12.80732 37019 ft 445 kts 131°
2026-05-05 08:12 45.71079 12.87672 37014 ft 444 kts 132°
2026-05-05 08:13 45.67249 12.94605 37012 ft 444 kts 132°
2026-05-05 08:13 45.63409 13.01537 37003 ft 445 kts 131°
2026-05-05 08:14 45.59560 13.08482 37006 ft 446 kts 132°
2026-05-05 08:14 45.55700 13.15419 37012 ft 446 kts 132°
2026-05-05 08:15 45.51829 13.22348 37023 ft 447 kts 132°
2026-05-05 08:15 45.47934 13.29262 37034 ft 447 kts 133°
2026-05-05 08:16 45.43858 13.35941 37027 ft 446 kts 136°
2026-05-05 08:16 45.39676 13.42488 37036 ft 447 kts 136°
2026-05-05 08:17 45.35500 13.49037 37038 ft 447 kts 135°
2026-05-05 08:17 45.31376 13.55595 37039 ft 448 kts 135°
2026-05-05 08:18 45.27231 13.62212 37040 ft 448 kts 135°
2026-05-05 08:18 45.23072 13.68812 37036 ft 449 kts 135°
2026-05-05 08:19 45.18895 13.75401 37037 ft 449 kts 135°
2026-05-05 08:19 45.14711 13.81988 37043 ft 449 kts 135°
2026-05-05 08:20 45.10520 13.88565 37045 ft 450 kts 135°
2026-05-05 08:20 45.06332 13.95139 37051 ft 450 kts 135°
2026-05-05 08:21 45.02136 14.01709 37045 ft 450 kts 135°
2026-05-05 08:21 44.97937 14.08267 37052 ft 450 kts 135°
2026-05-05 08:22 44.93736 14.14819 37046 ft 450 kts 135°
2026-05-05 08:22 44.89555 14.21317 37058 ft 450 kts 136°
2026-05-05 08:23 44.85337 14.27850 37038 ft 451 kts 135°
2026-05-05 08:23 44.81113 14.34395 37047 ft 451 kts 135°
2026-05-05 08:24 44.76884 14.40932 37051 ft 451 kts 136°
2026-05-05 08:24 44.72640 14.47462 37050 ft 451 kts 136°
2026-05-05 08:25 44.68401 14.53971 37049 ft 452 kts 136°
2026-05-05 08:25 44.64155 14.60478 37050 ft 452 kts 136°
2026-05-05 08:26 44.59901 14.66979 37047 ft 452 kts 136°
2026-05-05 08:26 44.55667 14.73439 37052 ft 453 kts 136°
2026-05-05 08:27 44.51398 14.79942 37056 ft 453 kts 136°
2026-05-05 08:27 44.47125 14.86433 37064 ft 453 kts 136°
2026-05-05 08:28 44.42842 14.92910 37062 ft 453 kts 136°
2026-05-05 08:28 44.38564 14.99373 37057 ft 453 kts 136°
2026-05-05 08:29 44.34277 15.05830 37056 ft 453 kts 136°
2026-05-05 08:30 44.27838 15.15524 37063 ft 454 kts 136°
2026-05-05 08:30 44.23569 15.21933 37072 ft 454 kts 136°
2026-05-05 08:31 44.19266 15.28370 37077 ft 453 kts 136°
2026-05-05 08:31 44.14957 15.34786 37064 ft 453 kts 136°
2026-05-05 08:32 44.10646 15.41203 37059 ft 454 kts 136°
2026-05-05 08:32 44.06328 15.47625 37063 ft 455 kts 136°
2026-05-05 08:33 44.02003 15.54040 37065 ft 455 kts 136°
2026-05-05 08:33 43.97668 15.60446 37064 ft 455 kts 136°
2026-05-05 08:34 43.93329 15.66845 37054 ft 455 kts 136°
2026-05-05 08:34 43.88985 15.73238 37037 ft 456 kts 136°
2026-05-05 08:35 43.84628 15.79640 37045 ft 457 kts 136°
2026-05-05 08:35 43.80267 15.86043 37050 ft 457 kts 136°
2026-05-05 08:36 43.75897 15.92430 37054 ft 457 kts 136°
2026-05-05 08:36 43.71537 15.98778 37057 ft 457 kts 136°
2026-05-05 08:37 43.67155 16.05159 37055 ft 458 kts 136°
2026-05-05 08:37 43.62760 16.11534 37058 ft 458 kts 136°
2026-05-05 08:38 43.58360 16.17903 37070 ft 458 kts 136°
2026-05-05 08:38 43.53956 16.24259 37070 ft 458 kts 137°
2026-05-05 08:39 43.49548 16.30613 37072 ft 458 kts 136°
2026-05-05 08:39 43.45253 16.37109 37067 ft 460 kts 134°
2026-05-05 08:40 43.41763 16.42645 37045 ft 461 kts 134°
2026-05-05 08:40 43.36861 16.50369 37055 ft 461 kts 134°
2026-05-05 08:41 43.32595 16.56974 37060 ft 462 kts 135°
2026-05-05 08:41 43.29010 16.62489 37062 ft 462 kts 135°
2026-05-05 08:42 43.24750 16.69028 37075 ft 462 kts 135°
2026-05-05 08:42 43.20464 16.75610 37072 ft 463 kts 135°
2026-05-05 08:43 43.16170 16.82196 37058 ft 464 kts 135°
2026-05-05 08:43 43.11858 16.88788 37065 ft 465 kts 135°
2026-05-05 08:44 43.07529 16.95387 37076 ft 466 kts 135°
2026-05-05 08:44 43.03194 17.01976 37080 ft 466 kts 135°
2026-05-05 08:45 42.98847 17.08566 37093 ft 467 kts 135°
2026-05-05 08:45 42.94530 17.15120 37090 ft 467 kts 135°
2026-05-05 08:46 42.90174 17.21717 37076 ft 468 kts 135°
2026-05-05 08:46 42.85805 17.28310 37084 ft 469 kts 135°
2026-05-05 08:47 42.81417 17.34905 37091 ft 470 kts 135°
2026-05-05 08:47 42.77021 17.41493 37094 ft 470 kts 135°
2026-05-05 08:48 42.72612 17.48085 37090 ft 471 kts 135°
2026-05-05 08:48 42.68200 17.54684 37093 ft 471 kts 135°
2026-05-05 08:49 42.63778 17.61275 37087 ft 472 kts 135°
2026-05-05 08:49 42.59368 17.67822 37094 ft 473 kts 135°
2026-05-05 08:50 42.54934 17.74414 37098 ft 473 kts 135°
2026-05-05 08:50 42.50488 17.81014 37102 ft 474 kts 135°
2026-05-05 08:51 42.46025 17.87604 37102 ft 475 kts 135°
2026-05-05 08:51 42.41541 17.94202 37110 ft 475 kts 135°
2026-05-05 08:52 42.37057 18.00792 37106 ft 476 kts 135°
2026-05-05 08:52 42.32572 18.07376 37118 ft 476 kts 135°
2026-05-05 08:53 42.28110 18.13921 37118 ft 476 kts 135°
2026-05-05 08:53 42.23608 18.20494 37126 ft 477 kts 135°
2026-05-05 08:54 42.19102 18.27053 37133 ft 477 kts 135°
2026-05-05 08:54 42.14593 18.33605 37128 ft 477 kts 135°
2026-05-05 08:55 42.10083 18.40151 37115 ft 477 kts 135°
2026-05-05 08:55 42.05559 18.46697 37129 ft 477 kts 135°
2026-05-05 08:56 42.00941 18.53116 37108 ft 476 kts 142°
2026-05-05 08:56 41.95747 18.58589 37119 ft 475 kts 146°
2026-05-05 08:57 41.90521 18.64022 37121 ft 475 kts 146°
2026-05-05 08:57 41.85317 18.69418 37108 ft 475 kts 145°
2026-05-05 08:58 41.80079 18.74831 37119 ft 475 kts 146°
2026-05-05 08:58 41.74834 18.80243 37134 ft 476 kts 145°
2026-05-05 08:59 41.69574 18.85658 37127 ft 477 kts 145°
2026-05-05 08:59 41.64307 18.91064 37113 ft 478 kts 145°
2026-05-05 09:00 41.59036 18.96485 37113 ft 478 kts 145°
2026-05-05 09:00 41.53762 19.01906 37124 ft 479 kts 145°
2026-05-05 09:01 41.48469 19.07307 37128 ft 479 kts 146°
2026-05-05 09:01 41.42701 19.11516 37133 ft 469 kts 164°
2026-05-05 09:02 41.36563 19.14487 37133 ft 470 kts 164°
2026-05-05 09:02 41.30423 19.17506 37126 ft 471 kts 164°
2026-05-05 09:03 41.24273 19.20529 37131 ft 471 kts 164°
2026-05-05 09:03 41.18146 19.23507 37134 ft 472 kts 164°
2026-05-05 09:04 41.11982 19.26501 37142 ft 472 kts 164°
2026-05-05 09:04 41.05812 19.29483 37144 ft 472 kts 164°
2026-05-05 09:05 40.99636 19.32465 37150 ft 472 kts 164°
2026-05-05 09:05 40.93461 19.35445 37140 ft 472 kts 164°
2026-05-05 09:06 40.87284 19.38418 37140 ft 472 kts 164°
2026-05-05 09:06 40.81108 19.41384 36614 ft 473 kts 164°
2026-05-05 09:06 40.77992 19.42873 35693 ft 478 kts 164°
2026-05-05 09:07 40.74851 19.44370 34832 ft 483 kts 163°
2026-05-05 09:07 40.71707 19.45872 34484 ft 474 kts 163°
2026-05-05 09:07 40.68655 19.47344 34380 ft 461 kts 163°
2026-05-05 09:07 40.65691 19.48780 34276 ft 449 kts 163°
2026-05-05 09:08 40.62748 19.50197 33740 ft 455 kts 163°
2026-05-05 09:08 40.59734 19.51630 32726 ft 465 kts 163°
2026-05-05 09:08 40.56680 19.53075 32037 ft 466 kts 163°
2026-05-05 09:08 40.53673 19.54497 31471 ft 464 kts 163°
2026-05-05 09:09 40.50644 19.55933 30929 ft 462 kts 163°
2026-05-05 09:09 40.47628 19.57364 30401 ft 460 kts 163°
2026-05-05 09:09 40.44621 19.58787 29847 ft 458 kts 163°
2026-05-05 09:09 40.41639 19.60200 29317 ft 454 kts 163°
2026-05-05 09:10 40.38682 19.61597 28814 ft 450 kts 163°
2026-05-05 09:10 40.35748 19.62983 28334 ft 446 kts 162°
2026-05-05 09:10 40.32821 19.64366 27596 ft 448 kts 162°
2026-05-05 09:10 40.29901 19.65743 27102 ft 444 kts 162°
2026-05-05 09:11 40.27005 19.67110 26567 ft 441 kts 162°
2026-05-05 09:11 40.24109 19.68472 25929 ft 442 kts 162°
2026-05-05 09:11 40.21224 19.69827 25422 ft 439 kts 162°
2026-05-05 09:11 40.18354 19.71178 24895 ft 437 kts 162°
2026-05-05 09:12 40.15498 19.72524 24354 ft 435 kts 162°
2026-05-05 09:12 40.12653 19.73864 23815 ft 434 kts 162°
2026-05-05 09:12 40.09817 19.75195 23284 ft 431 kts 161°
2026-05-05 09:12 40.07012 19.76506 22728 ft 428 kts 161°
2026-05-05 09:13 40.04234 19.77807 22345 ft 421 kts 161°
2026-05-05 09:13 40.01522 19.79078 21799 ft 418 kts 161°
2026-05-05 09:13 39.98792 19.80356 21337 ft 415 kts 161°
2026-05-05 09:13 39.96087 19.81619 20875 ft 411 kts 161°
2026-05-05 09:14 39.93409 19.82864 20420 ft 407 kts 161°
2026-05-05 09:14 39.90749 19.84087 19972 ft 402 kts 163°
2026-05-05 09:14 39.88041 19.84891 19538 ft 397 kts 172°
2026-05-05 09:14 39.85328 19.85491 19095 ft 393 kts 172°
2026-05-05 09:15 39.82644 19.86082 18667 ft 390 kts 172°
2026-05-05 09:15 39.79981 19.86668 18209 ft 386 kts 172°
2026-05-05 09:15 39.77337 19.87252 17730 ft 383 kts 171°
2026-05-05 09:15 39.74753 19.87827 17244 ft 380 kts 171°
2026-05-05 09:16 39.72157 19.88405 16718 ft 377 kts 171°
2026-05-05 09:16 39.69570 19.88978 16235 ft 375 kts 171°
2026-05-05 09:16 39.67003 19.89544 15772 ft 373 kts 171°
2026-05-05 09:16 39.64448 19.90107 15322 ft 371 kts 171°
2026-05-05 09:17 39.61910 19.90615 14877 ft 368 kts 176°
2026-05-05 09:17 39.59367 19.90523 14445 ft 364 kts 190°
2026-05-05 09:17 39.56893 19.89833 13992 ft 362 kts 195°
2026-05-05 09:17 39.54442 19.89095 13516 ft 360 kts 194°
2026-05-05 09:18 39.52040 19.88376 13063 ft 357 kts 194°
2026-05-05 09:18 39.49627 19.87658 12615 ft 354 kts 194°
2026-05-05 09:18 39.47236 19.86948 12165 ft 351 kts 194°
2026-05-05 09:18 39.44868 19.86246 11719 ft 348 kts 193°
2026-05-05 09:19 39.42524 19.85554 11274 ft 344 kts 193°
2026-05-05 09:19 39.40200 19.84865 10835 ft 341 kts 193°
2026-05-05 09:19 39.37903 19.84183 10533 ft 333 kts 193°
2026-05-05 09:19 39.35687 19.83527 10420 ft 321 kts 193°
2026-05-05 09:20 39.33550 19.82895 10247 ft 310 kts 193°
2026-05-05 09:20 39.31431 19.82631 9870 ft 305 kts 172°
2026-05-05 09:20 39.29463 19.83516 9494 ft 299 kts 145°
2026-05-05 09:20 39.28035 19.85378 9094 ft 293 kts 119°
2026-05-05 09:21 39.27371 19.87840 8653 ft 286 kts 95°
2026-05-05 09:21 39.27275 19.90363 8022 ft 279 kts 89°
2026-05-05 09:21 39.27342 19.92848 7339 ft 276 kts 79°
2026-05-05 09:21 39.28084 19.95079 6693 ft 271 kts 51°
2026-05-05 09:22 39.29560 19.96541 5954 ft 270 kts 21°
2026-05-05 09:22 39.31389 19.97090 5221 ft 270 kts
2026-05-05 09:22 39.33217 19.97499 4496 ft 270 kts
2026-05-05 09:22 39.35059 19.97912 3811 ft 268 kts
2026-05-05 09:23 39.36905 19.98121 3317 ft 265 kts 355°
2026-05-05 09:23 39.38685 19.98001 3167 ft 244 kts 356°
2026-05-05 09:23 39.40307 19.97906 3050 ft 225 kts 357°
2026-05-05 09:23 39.41835 19.97824 2948 ft 214 kts 355°
2026-05-05 09:24 39.43241 19.97447 2939 ft 200 kts 343°
2026-05-05 09:24 39.44562 19.96956 2929 ft 196 kts 343°
2026-05-05 09:24 39.45864 19.96473 2699 ft 192 kts 342°
2026-05-05 09:24 39.47102 19.96011 2440 ft 180 kts 343°
2026-05-05 09:25 39.48285 19.95568 2206 ft 175 kts 342°
2026-05-05 09:25 39.49447 19.95131 1978 ft 169 kts 343°
2026-05-05 09:25 39.50522 19.94728 1764 ft 156 kts 342°
2026-05-05 09:25 39.51523 19.94353 1555 ft 149 kts 343°
2026-05-05 09:26 39.52516 19.93981 1350 ft 148 kts 343°
2026-05-05 09:26 39.53510 19.93619 1132 ft 148 kts 344°
2026-05-05 09:26 39.54476 19.93258 995 ft 141 kts 343°
2026-05-05 09:26 39.55411 19.92857 857 ft 143 kts 338°
2026-05-05 09:27 39.56327 19.92364 650 ft 143 kts 339°
2026-05-05 09:27 39.57292 19.91963 462 ft 147 kts 346°
2026-05-05 09:27 39.58294 19.91695 288 ft 148 kts 351°
2026-05-05 09:27 39.59290 19.91442 59 ft 143 kts 352°
2026-05-05 09:28 39.60156 19.91223 24 ft 96 kts 348°
2026-05-05 09:28 39.60667 19.91091 18 ft 68 kts 349°
2026-05-05 09:28 39.61004 19.91002 19 ft 18 kts 347°
2026-05-05 09:28 39.61038 19.91052 19 ft 7 kts 76°
2026-05-05 09:29 39.61052 19.91082 20 ft 1 kts 56°
2026-05-05 09:29 39.61056 19.91102 19 ft 4 kts 90°
2026-05-05 09:29 39.61021 19.91133 19 ft 12 kts 161°
2026-05-05 09:29 39.60906 19.91163 20 ft 19 kts 167°
2026-05-05 09:30 39.60767 19.91200 18 ft 21 kts 168°
2026-05-05 09:30 39.60663 19.91228 18 ft 9 kts 156°
2026-05-05 09:30 39.60660 19.91309 19 ft 9 kts 78°
2026-05-05 09:30 39.60667 19.91360 19 ft 1 kts 79°
2026-05-05 09:31 39.60668 19.91362 20 ft 0 kts 79°